Regional Weather Roundup
Issued by NWS

Home | Current Version | Previous Version | Text Only | Print | Product List | Glossary Off
Versions: 1 2 3 4 5 6 7 8 9 10 11 12 13 14 15 16 17 18 19 20 21 22 23 24 25 26 27

000
ASUS45 KBOU 252007
RWRCO

WEATHER ROUNDUP FOR COLORADO
NATIONAL WEATHER SERVICE DENVER/BOULDER CO
200 PM MDT SUN JUN 25 2017

NOTE: "FAIR" INDICATES FEW OR NO CLOUDS BELOW 12000 FEET WITH NO
SIGNIFICANT WEATHER AND/OR OBSTRUCTIONS TO VISIBILITY.

COZ001>005-013-030-031-252100-
...NORTHWEST COLORADO...

CITY           SKY/WX    TMP DP  RH WIND       PRES   REMARKS
CRAIG          FAIR      81  27  14 VRB7      30.31F
HAYDEN         FAIR      79  32  18 W13G18    30.33F
MEEKER         FAIR      82  30  15 S10G17    30.30F
RABBIT EARS PA FAIR      59  32  36 W7        30.60F
STEAMBOAT SPGS FAIR      76  33  20 W13       30.34F
WALDEN         NOT AVBL
$$

COZ006>008-011-252100-
...WEST CENTRAL VALLEYS...

CITY           SKY/WX    TMP DP  RH WIND       PRES   REMARKS
GRAND JUNCTION FAIR      92  26   9 SW8G16    30.16F
MONTROSE       FAIR      88  25  10 VRB5      30.23F
EAGLE          SUNNY     82  30  15 W3        30.30F
RIFLE          FAIR      88  23   9 S8G20     30.21F
DELTA          FAIR      93  25   8 SE3       30.18F
NUCLA          FAIR      91  18   6 N10       30.26F
$$

COZ017>023-064>068-252100-
...SOUTHWEST COLORADO...

CITY           SKY/WX    TMP DP  RH WIND       PRES   REMARKS
DURANGO        FAIR      85  25  11 CALM      30.29F
CORTEZ         FAIR      89  32  13 S6        30.23F
PAGOSA SPRINGS FAIR      82  30  15 SW10G17   30.38F
TELLURIDE      FAIR      75  18  11 CALM      30.51S
WOLF CREEK PAS FAIR      59  37  44 SW16G24   30.74F
$$

COZ009-010-012-014-032>034-037-058>063-252100-
...CENTRAL COLORADO...

CITY           SKY/WX    TMP DP  RH WIND       PRES   REMARKS
ASPEN          FAIR      78  26  14 N8G21     30.37F
BUENA VISTA    FAIR      77  31  18 CALM      30.35F
COPPER MTN     FAIR      61  16  17 NW20G33   30.69F
BERTHOUD PASS  FAIR      50  37  62 MISG      30.72R
COTTONWOOD PAS FAIR      75  32  20 E10       30.51F
GUNNISON       FAIR      78  27  15 VRB3      30.36F
KREMMLING      NOT AVBL
LEADVILLE      FAIR      69  13  11 W20       30.51F
MONARCH PASS   FAIR      63  25  23 W20G33    30.80S
SALIDA         FAIR      83  29  14 CALM      30.38F
SUNLIGHT       FAIR      63  21  20 SW8       30.65S
WILKERSON PASS CLOUDY    55  41  58 NE13G18   30.65F
$$

COZ069>075-252100-
...SAN LUIS VALLEY/SANGRE DE CRISTO MOUNTAINS...

CITY           SKY/WX    TMP DP  RH WIND       PRES   REMARKS
ALAMOSA        FAIR      78  40  25 VRB6      30.34F
DEL NORTE      FAIR      75  46  35 E8        30.38F
LA VETA PASS   FAIR      64  50  59 N10G30    30.69S
SAGUACHE       FAIR      79  41  25 S13       30.36F
$$

COZ035-036-038>040-252100-
...NORTHERN COLORADO FRONT RANGE...

CITY           SKY/WX    TMP DP  RH WIND       PRES   REMARKS
DENVER INTL AP FAIR      66  50  56 N7        30.34F
DMNS CITY PARK   N/A     66  49  54 NE17      30.34F
AURORA         PTSUNNY   67  52  58 NW7       30.35F
FRONT RANGE AP PTSUNNY   70  52  52 N13G22    30.35F
ERIE MUNI ARPT CLOUDY    67  51  56 NE7       30.34F
BOULDER MUN AP CLOUDY    63  50  63 N5        30.35F
CENTENNIAL     FAIR      68  51  54 N9        30.36F
BROOMFIELD     CLOUDY    64  50  59 NW7       30.37F
FORT COLLINS   CLOUDY    65  51  60 SE3       30.35F
LONGMONT       CLOUDY    68  50  52 CALM      30.36F
$$

COZ041-046-047-076>085-087-088-252100-
...PIKES PEAK/PALMER DIVIDE AND SOUTHERN FOOTHILLS...

CITY           SKY/WX    TMP DP  RH WIND       PRES   REMARKS
COLO. SPRINGS  PTSUNNY   77  47  34 S10G16    30.32F
A. F. ACADEMY  PTSUNNY   73  48  40 E9        30.32F
SCHRIEVER AFB  FAIR      75  47  35 SE9       30.32F
CHEYENNE MTN   FAIR      69  47  45 S6        30.31F
ELLICOTT       FAIR     N/A N/A N/A SW8       30.31F
FALCON           N/A     73  44  35 E8        30.37F
FORT CARSON    FAIR      77  48  35 E3        30.29F
LIMON          FAIR      76  52  43 SE17G24   30.31F
MONUMENT HILL  PTSUNNY   68  46  45 NE7G17    30.40F
CANON CITY     SUNNY     82  54  36 SE12G22   30.25F
WALSENBURG     FAIR      82  52  34 E8        30.29F
TRINIDAD       FAIR      82  51  34 CALM      30.27F
$$

COZ042>045-048>051-090-091-252100-
...NORTHEAST COLORADO...

CITY           SKY/WX    TMP DP  RH WIND       PRES   REMARKS
GREELEY ARPT   CLOUDY    64  52  64 SE6       30.35F
AKRON          CLOUDY    63  51  65 E12       30.34F
BURLINGTON     CLOUDY    69  55  60 SE17G23   30.31F
WRAY           CLOUDY    63  52  67 E7        30.34F
YUMA           CLOUDY    59  46  63 E10       30.34F
STERLING       FAIR      70  52  52 S9        30.30F
HOLYOKE        NOT AVBL
FORT MORGAN    PTSUNNY   67  52  57 E8        30.33F
$$

COZ086-089-092>099-252100-
...SOUTHEAST COLORADO...

CITY           SKY/WX    TMP DP  RH WIND       PRES   REMARKS
PUEBLO         FAIR      83  55  38 SE10      30.22F
LA JUNTA       PTSUNNY   84  56  38 N10       30.21F
LAMAR          PTSUNNY   75  58  55 E26G38    30.20S
SPRINGFIELD      N/A     78  60  53 SW15G23   30.23F
$$




USA.gov is the U.S. government's official web portal to all federal, state and local government web resources and services.